Tracking 19245 objects as of 18-Aug-2018
HD Live streaming from Space Station
objects crossing your sky now

FENGYUN 1C DEB

Track FENGYUN 1C DEB now!
10-day predictions


NORAD ID: 30101
Int'l Code: 1999-025RE
Perigee: 722.4 km
Apogee: 780.7 km
Inclination: 99.2 °
Period: 99.7 minutes
Semi major axis: 7122 km
RCS: 0.023 m2 (small)
Launch date: May 10, 1999
Source: People's Republic of China (PRC)
Launch site: Taiyaun Space Center, China (TSC)

Note: This is SATELLITE DEBRIS
aabbcc
Your satellite tracking list
Your tracking list is empty




NASA's NSSDC Master Catalog

Two Line Element Set (TLE):
1 30101U 99025RE  18228.45838973 +.00001482 +00000-0 +44160-3 0  9991
2 30101 099.1526 139.2849 0040881 031.6869 023.8084 14.44270074604412
Source of the keplerian elements: AFSPC